RH
70 70 70 70 68 65 64 60 60 61 56 59 53 50 49 44 37 35 40 46 39 34 41 40 42 40 22 13 16 27 34 33 29 26 21 21 19 19 20 22 21 17 16 18 17
63 64 66 64 62 60 57 55 53 53 54 54 52 50 53 56 47 38 43 43 35 29 29 30 32 42 42 24 20 28 26 26 21 22 21 22 25 25 26 23 22 21 19 18 20
66 64 62 63 63 62 60 55 53 55 58 55 50 52 56 57 46 44 48 46 36 34 33 38 45 46 40 39 24 22 21 19 21 22 24 27 31 30 28 27 25 23 21 21 23
66 63 65 64 60 60 57 55 52 52 54 53 51 51 52 50 39 42 47 48 47 50 50 54 58 53 46 43 40 33 24 24 25 35 38 34 34 38 36 32 29 29 27 26 27
66 61 64 64 65 62 55 52 53 53 49 43 36 31 29 27 23 29 32 40 50 54 52 61 70 71 55 51 59 61 40 42 44 45 47 51 52 49 41 37 35 33 35 31 29
65 59 57 61 63 62 54 51 47 43 38 29 22 16 14 14 24 24 22 27 34 41 68 83 89 86 82 71 81 63 58 56 56 62 66 60 60 62 53 48 43 43 39 35 33
67 64 54 58 61 58 49 49 44 33 22 12 7 5 7 8 11 12 19 34 45 60 69 77 84 93 90 95 88 90 86 72 66 66 58 66 69 62 56 54 48 47 45 38 35
68 61 59 57 57 55 53 43 22 7 3 2 3 4 4 8 15 31 41 42 47 53 52 60 73 91 100 100 100 90 85 82 65 60 65 65 60 62 60 56 49 45 44 41 37
67 60 66 65 62 46 24 9 3 2 1 2 2 4 10 22 38 45 65 52 52 55 62 73 92 98 100 98 98 97 98 97 80 64 56 58 61 59 54 52 54 50 47 44 39
69 70 68 60 30 10 2 1 1 1 3 2 7 10 28 47 60 64 60 50 42 37 38 64 90 95 97 97 91 86 97 96 86 73 67 62 60 60 54 53 50 49 48 46 42
75 71 50 14 2 1 1 1 2 3 3 6 17 52 68 66 65 61 55 47 37 29 26 45 74 52 68 63 76 81 91 98 77 85 79 96 96 94 67 56 52 49 50 51 48
78 48 6 1 1 1 2 2 3 5 6 11 68 63 60 56 55 65 52 45 37 23 33 79 76 40 76 87 90 80 76 83 69 61 89 96 96 94 97 81 64 62 66 56 52
52 6 1 1 2 2 3 3 4 4 5 30 76 61 57 60 66 57 40 26 25 28 87 100 54 83 98 93 95 86 89 77 80 65 96 96 97 96 96 97 95 81 71 70 65
3 1 2 3 3 3 4 4 4 5 22 40 77 66 57 66 62 31 48 53 72 80 80 49 49 76 92 98 100 96 76 90 94 95 94 92 95 91 93 98 99 97 96 92 78
1 2 3 3 4 4 5 5 5 11 54 46 65 64 88 54 14 52 26 15 8 9 18 12 60 79 68 74 85 95 98 98 97 96 100 96 97 97 99 100 100 97 96 96 96
3 4 4 5 5 6 6 6 7 32 54 49 59 66 27 6 19 20 8 8 9 17 25 45 51 72 96 100 89 97 97 82 88 100 96 80 94 100 99 100 100 99 96 96 97
4 5 6 6 7 7 7 7 15 38 36 58 44 15 7 21 24 16 24 34 63 59 60 48 46 67 62 53 39 85 72 94 99 96 79 77 97 100 98 99 97 96 96 96 96
6 6 7 7 8 8 8 8 19 40 46 46 16 7 26 31 25 35 48 76 87 87 76 78 72 48 37 66 94 73 82 95 96 94 95 97 97 100 98 96 96 98 96 96 96
7 7 8 9 9 9 7 10 36 64 59 27 8 13 23 27 28 48 76 100 100 98 93 83 77 47 79 69 75 87 77 82 94 82 92 97 100 100 100 100 98 98 97 99 96
8 8 9 10 10 9 9 17 34 20 11 10 19 34 46 38 41 70 98 98 100 100 83 88 98 77 68 66 74 90 98 88 98 95 94 94 100 100 100 100 99 99 99 98 97
9 10 11 11 11 9 10 9 8 8 10 17 27 35 46 65 76 91 100 100 98 84 62 96 100 69 84 95 100 78 87 89 97 97 96 98 100 100 100 100 99 99 99 98 98
11 12 12 13 10 12 10 10 10 10 15 16 14 41 42 62 89 100 100 96 100 54 85 100 100 100 100 100 94 96 100 100 100 95 99 98 99 100 100 100 100 100 100 100 99
14 14 14 14 14 13 12 11 11 11 11 9 18 21 44 84 93 99 100 100 98 41 86 97 98 100 96 83 77 99 99 100 100 100 100 100 100 100 100 100 100 100 100 100 100
16 15 16 14 15 15 15 14 12 11 11 9 13 22 42 96 96 97 94 53 60 54 98 95 79 70 90 98 100 100 99 95 100 98 100 100 100 100 100 100 100 100 100 100 100
17 18 18 17 17 17 18 17 14 12 11 11 16 22 37 70 82 86 39 30 31 39 91 100 99 96 100 100 86 92 98 99 98 100 100 100 100 100 100 100 100 100 100 100 100
18 19 20 18 20 20 21 20 17 14 13 13 17 22 41 76 96 64 27 30 45 34 61 100 100 100 100 100 100 75 96 90 95 100 100 100 99 100 100 100 100 100 100 100 100
21 21 22 22 23 24 26 25 21 17 17 14 16 17 25 60 66 62 31 36 58 54 50 100 100 100 100 90 96 78 99 100 100 100 100 97 100 100 100 100 100 100 100 100 100
Wind_Speed
29 30 31 31 32 33 35 36 36 37 40 42 42 43 40 37 39 45 47 41 35 36 45 41 39 39 41 45 44 44 52 63 62 57 58 43 40 35 35 39 38 36 39 34 30
31 32 32 34 34 36 38 39 40 43 43 45 45 46 42 37 33 35 40 35 26 20 19 16 20 38 45 45 47 51 63 70 65 57 55 50 44 38 36 35 35 33 41 39 35
33 34 34 38 39 39 40 43 44 46 43 43 44 45 44 39 37 28 15 22 20 21 23 27 33 38 41 46 51 57 73 63 62 58 52 46 41 36 36 37 35 37 38 38 36
39 41 40 40 40 40 41 43 46 44 39 41 42 44 44 40 29 29 33 36 39 41 42 42 39 37 46 50 50 59 65 62 62 53 47 48 43 42 40 38 35 32 37 37 35
43 44 42 44 44 44 43 42 42 42 40 41 43 43 45 47 35 28 33 32 37 37 40 39 39 34 44 48 46 55 57 55 48 45 48 48 42 38 38 38 39 40 35 33 37
42 48 45 47 47 45 44 43 44 45 43 43 45 44 46 48 32 31 34 34 35 37 33 28 30 28 37 44 45 46 47 49 50 50 52 45 44 38 42 40 41 35 36 35 37
46 50 50 49 49 48 48 48 48 49 45 45 43 42 44 38 34 36 34 30 27 29 30 28 26 32 37 43 43 43 47 52 54 46 39 41 48 44 45 48 49 48 44 41 41
53 55 52 50 48 49 49 48 48 46 42 40 35 37 41 31 33 25 22 24 26 26 29 26 23 30 34 39 43 33 31 37 38 36 48 39 46 39 48 47 46 47 46 46 46
56 54 52 49 48 49 49 47 44 41 39 34 36 28 28 20 21 21 15 15 11 12 14 14 21 28 32 31 35 42 42 41 45 39 25 23 40 42 43 44 51 52 51 48 47
58 55 52 49 48 47 45 40 39 39 29 35 28 25 14 16 8 3 8 15 19 24 22 16 19 29 33 36 30 32 23 34 41 37 33 32 34 39 43 48 48 49 53 53 52
55 51 46 45 42 41 40 39 40 43 33 34 25 11 6 3 7 13 14 21 23 26 31 24 25 38 34 31 37 43 47 41 50 31 20 26 33 36 37 38 41 47 48 49 51
50 45 41 38 37 37 38 39 40 40 47 30 5 6 8 11 16 14 24 26 32 39 29 22 32 33 27 30 35 37 41 45 43 41 34 32 28 36 43 42 37 43 47 48 46
45 41 37 37 36 37 37 37 37 38 39 12 8 12 14 13 20 22 29 36 34 29 22 23 37 31 25 24 26 33 38 38 37 32 24 21 28 32 34 36 37 35 39 44 47
38 37 35 35 37 37 37 35 34 34 19 7 7 13 14 16 14 33 27 23 22 27 30 30 27 25 29 33 30 33 37 39 42 34 17 23 4 24 36 38 38 38 39 42 43
35 36 37 36 36 36 34 34 32 26 5 13 9 14 16 30 37 21 25 32 31 34 28 43 37 37 38 36 33 39 34 33 31 33 34 26 10 10 28 37 36 36 36 36 38
35 35 34 36 38 35 33 33 30 11 5 10 12 16 36 37 22 27 36 30 27 22 21 23 25 15 18 22 25 26 24 28 32 34 20 45 27 9 17 34 36 33 34 33 33
34 36 36 37 34 33 34 31 15 3 9 10 23 35 32 23 27 29 33 31 25 21 33 33 18 8 19 36 34 19 28 5 4 6 9 23 23 7 18 16 24 29 27 28 29
36 38 38 39 35 34 33 26 5 12 21 23 30 32 14 20 24 27 27 19 16 23 25 17 12 20 38 26 22 30 13 6 4 3 6 7 5 8 10 13 19 24 23 23 22
37 38 38 33 32 34 26 16 7 13 17 29 30 17 11 23 23 23 21 11 17 25 22 12 15 42 13 23 24 14 25 20 16 32 9 6 5 10 9 13 16 18 20 20 19
38 37 33 30 32 26 24 13 9 16 20 21 14 11 18 24 21 21 11 12 17 24 29 13 19 10 26 20 10 18 11 5 12 5 5 3 4 5 17 17 15 16 16 16 16
36 35 29 29 29 21 18 11 14 16 18 13 16 16 15 17 20 11 8 14 16 31 26 19 7 22 22 23 32 32 21 11 11 10 3 2 4 4 15 12 13 13 13 13 14
34 30 27 28 20 23 17 15 17 15 14 13 16 13 16 19 10 5 9 11 22 26 25 7 9 10 7 5 29 31 30 18 3 5 6 8 5 5 5 10 10 12 13 13 13
34 28 28 23 20 20 16 17 15 14 15 16 12 15 14 13 7 7 9 16 12 26 22 14 5 7 1 5 31 29 35 23 12 11 8 1 5 7 9 11 11 11 12 12 11
34 22 26 20 23 19 17 16 17 15 15 18 14 18 14 5 9 6 12 11 11 26 14 5 16 14 16 17 22 31 37 36 7 7 15 15 21 10 9 9 9 8 8 8 9
32 23 25 21 22 21 19 18 17 16 16 16 14 17 16 8 3 11 13 12 17 28 16 2 10 15 15 15 26 37 40 35 41 17 10 16 20 11 8 7 8 7 5 5 5
31 26 23 19 20 18 20 20 17 16 15 13 14 13 14 11 10 11 14 24 26 31 29 6 6 3 5 10 6 35 35 35 29 28 25 18 17 9 6 5 3 2 1 1 2
31 26 22 18 18 19 21 20 16 14 15 13 15 13 14 8 7 6 11 18 25 33 34 15 6 4 2 7 6 9 34 24 26 23 17 16 10 6 4 2 1 3 3 3 4
Wind_Direction
333 331 329 325 321 318 318 316 312 313 313 311 306 303 300 295 295 296 299 300 288 271 258 257 259 254 246 242 242 243 244 246 248 251 254 264 263 262 264 259 257 250 248 250 236
328 325 323 321 316 315 316 315 314 313 314 309 307 304 301 297 296 292 295 294 292 272 258 256 258 257 247 244 237 234 239 245 254 259 263 266 265 267 264 258 250 250 245 246 239
332 329 322 321 319 317 318 315 312 311 313 309 309 309 307 309 313 301 301 296 272 265 253 260 272 268 253 247 238 243 247 255 256 260 262 264 262 262 258 254 254 246 245 246 242
336 332 330 326 320 316 312 311 311 312 313 311 309 306 306 304 309 309 291 277 268 264 265 268 268 258 254 247 243 241 251 253 258 259 260 263 266 258 256 257 248 250 245 241 239
337 333 327 323 319 315 312 312 315 315 317 314 309 308 304 301 315 283 279 278 271 269 268 265 263 256 252 250 249 249 254 253 258 258 264 266 261 254 250 250 247 244 236 237 238
327 329 324 325 322 319 317 318 318 315 318 313 309 307 302 302 308 293 281 269 267 270 269 260 258 257 262 257 257 260 264 263 262 265 264 258 254 245 247 248 241 239 236 234 235
324 327 328 327 325 323 319 321 318 315 316 309 309 307 300 312 296 290 282 286 282 278 280 276 261 256 255 263 263 263 266 265 260 263 262 258 256 250 250 246 243 250 245 238 233
329 329 328 327 324 319 318 319 316 314 316 316 313 308 306 303 294 295 301 295 288 282 276 277 268 258 250 259 258 259 264 268 273 264 255 250 253 244 244 241 242 244 245 241 239
326 327 325 325 321 320 320 319 317 319 322 320 316 313 309 298 303 310 319 328 325 307 301 285 263 255 257 259 260 261 256 256 264 264 259 239 249 243 242 243 239 240 242 241 237
325 326 326 325 322 321 320 321 321 321 328 327 320 313 294 309 327 260 317 331 335 339 337 314 264 261 260 266 266 268 256 259 262 267 258 250 246 244 240 238 238 235 235 237 234
323 324 326 323 323 322 325 328 325 324 334 324 314 301 261 296 309 298 298 309 315 322 321 311 283 273 275 279 275 272 275 276 273 253 244 238 247 241 245 238 234 235 237 234 233
322 327 326 326 328 328 331 332 331 328 329 330 266 253 264 284 318 302 304 318 319 316 311 302 278 291 298 283 269 265 266 268 275 275 268 264 254 242 236 239 237 233 235 236 236
326 327 330 329 332 331 331 331 329 326 324 313 257 276 288 297 320 305 313 309 310 306 305 293 283 296 282 279 260 259 257 267 261 285 261 253 243 239 240 239 234 227 226 229 232
328 331 333 332 332 332 330 330 328 325 315 308 271 281 291 294 307 315 307 316 305 293 293 289 291 293 292 289 286 260 274 269 264 265 255 243 234 229 233 231 231 226 223 225 226
334 334 333 334 333 330 329 329 327 325 340 306 281 297 302 316 316 300 311 310 306 296 291 286 293 293 287 284 292 285 284 279 256 264 258 243 232 220 225 220 220 220 219 218 221
335 334 334 332 332 332 331 330 330 317 265 318 296 298 311 319 324 317 318 320 319 305 292 289 306 313 297 295 283 296 297 287 276 261 258 241 206 208 200 218 215 213 214 214 212
333 332 333 333 332 331 330 332 322 215 318 303 315 321 324 322 325 330 336 340 359 350 339 333 340 295 315 322 315 304 332 305 253 210 237 232 204 202 211 216 220 219 211 209 209
333 333 334 334 331 331 332 333 281 296 310 305 319 325 322 324 332 335 341 348 356 4 347 343 328 335 320 324 314 315 276 257 296 295 345 286 109 142 197 201 199 204 208 209 208
335 334 333 331 329 331 334 332 305 312 312 317 326 326 327 321 336 339 340 354 353 355 2 327 299 325 15 335 315 301 297 278 289 278 278 151 114 126 176 176 182 190 192 195 195
335 332 331 330 331 333 339 333 315 311 314 322 321 311 316 329 338 344 348 328 336 340 338 328 299 343 338 336 8 10 302 327 227 239 232 99 124 143 183 175 172 178 181 180 183
334 334 334 332 334 338 344 342 332 326 327 327 315 311 320 328 329 336 334 313 317 328 338 331 300 313 344 31 8 10 15 5 292 283 318 124 34 173 195 176 176 168 169 170 174
338 338 337 336 339 345 350 349 341 334 331 327 322 327 326 327 327 339 333 324 332 340 344 339 301 307 344 39 11 26 18 4 311 348 2 105 10 188 180 167 172 169 164 166 171
348 344 341 339 349 357 359 349 349 340 339 339 334 335 333 328 331 321 332 325 331 347 347 336 307 312 41 333 21 23 18 8 291 259 15 4 116 189 160 153 153 162 160 164 170
353 347 343 340 357 3 7 357 354 350 345 344 338 345 347 316 335 350 353 358 349 0 354 43 77 85 115 90 47 32 28 30 65 78 78 73 124 142 135 136 134 142 150 162 171
356 354 352 346 359 4 10 5 2 357 351 352 347 349 359 0 40 18 17 20 18 10 18 105 126 102 98 67 42 39 34 40 49 55 75 113 109 103 98 105 118 126 137 156 174
4 3 357 353 3 4 9 8 4 1 357 1 4 1 4 9 30 35 30 25 18 13 18 23 192 193 274 306 323 25 29 39 59 79 95 101 83 79 85 103 97 92 125 181 201
7 5 2 1 6 10 11 7 5 1 8 9 10 6 6 15 35 46 29 27 26 20 16 20 168 220 346 48 108 11 8 26 42 48 55 52 38 38 27 14 333 246 243 226 219